This is the latest recevied weather packets stored in our database for station/object AE0NK. If no packets are shown the sender has not sent any weather packets the latest 10 day(s).
| Time | Temp. | Humidity | Pressure | Rain* | Wind** | Luminosity | Snow |
|---|---|---|---|---|---|---|---|
| 1777962204 | 11.67° C | 44% | 1006 hPa | 0 mm | - | 0 W/m² | - |
| 1777961901 | 11.67° C | 43% | 1006.3 hPa | 0 mm | - | 0 W/m² | - |
| 1777961600 | 11.67° C | 42% | 1005.8 hPa | 0 mm | - | 0 W/m² | - |
| 1777961317 | 11.67° C | 44% | 1005.8 hPa | 0 mm | - | 0 W/m² | - |
| 1777961008 | 11.67° C | 44% | 1005.8 hPa | 0 mm | - | 0 W/m² | - |
| 1777960699 | 11.67° C | 44% | 1005.6 hPa | 0 mm | - | 0 W/m² | - |
| 1777960396 | 12.22° C | 43% | 1005.5 hPa | 0 mm | - | 0 W/m² | - |
| 1777960093 | 12.22° C | 43% | 1005.5 hPa | 0 mm | - | 0 W/m² | - |
| 1777959810 | 12.22° C | 44% | 1005.5 hPa | 0 mm | - | 0 W/m² | - |
| 1777959508 | 12.22° C | 43% | 1005.4 hPa | 0 mm | - | 0 W/m² | - |
| 1777959206 | 12.22° C | 43% | 1005.4 hPa | 0 mm | - | 0 W/m² | - |
| 1777958905 | 12.22° C | 43% | 1005.3 hPa | 0 mm | - | 0 W/m² | - |
| 1777958604 | 12.78° C | 44% | 1005.2 hPa | 0 mm | - | 0 W/m² | - |
| 1777958302 | 12.78° C | 44% | 1005.4 hPa | 0 mm | - | 0 W/m² | - |
| 1777958001 | 12.78° C | 45% | 1005.1 hPa | 0 mm | - | 0 W/m² | - |
| 1777957699 | 12.78° C | 48% | 1005 hPa | 0 mm | - | 0 W/m² | - |
| 1777957398 | 12.78° C | 46% | 1005.1 hPa | 0 mm | - | 0 W/m² | - |
| 1777957107 | 13.33° C | 46% | 1004.9 hPa | 0 mm | - | 0 W/m² | - |
| 1777956805 | 13.33° C | 44% | 1004.9 hPa | 0 mm | - | 0 W/m² | - |
| 1777956504 | 13.33° C | 45% | 1004.9 hPa | 0 mm | - | 0 W/m² | - |
| 1777956199 | 13.33° C | 43% | 1004.9 hPa | 0 mm | - | 0 W/m² | - |
| 1777955897 | 13.33° C | 42% | 1004.9 hPa | 0 mm | - | 0 W/m² | - |
| 1777955596 | 13.33° C | 41% | 1005.1 hPa | 0 mm | - | 0 W/m² | - |
| 1777955293 | 13.33° C | 41% | 1005.2 hPa | 0 mm | - | 0 W/m² | - |
| 1777955011 | 13.33° C | 42% | 1005.1 hPa | 0 mm | - | 0 W/m² | - |
* Rain latest hour (hover to see other rain measurements)
** Current wind speed in m/s (hover to see current wind gust speed)